Location: Gönnheim
(49.4488°N, 8.2383°E)
Time: 01:32:16
(UTC+00:00)

Cosmos 2173 Rocket - Pass Details

Date: 19 May 2025
Orbit: 943 x 1000 km, 83.0° (Epoch: 23 June)

Event Time Altitude Azimuth Distance (km) Brightness Sun altitude
Rises 23:09:39 0° 353° (N) 3,732 8.6 -20.5°
Reaches altitude 10° 23:12:17 10° 358° (N) 2,775 7.6 -20.5°
Maximum altitude 23:18:31 54° 75° (ENE) 1,189 4.5 -20.6°
Enters shadow 23:21:46 28° 140° (SE) 1,766 4.9 -20.6°
